Stations météo

Publicité
Chassiron, France (7314): Température de l'air & dewpoint: 20.06.2019 20:00:00 - 26.06.2019 20:00:00 (CEST)Chassiron, France (7314): Vitesse du vent & gusts: 20.06.2019 20:00:00 - 26.06.2019 20:00:00 (CEST)Chassiron, France (7314): Direction du vent: 20.06.2019 20:00:00 - 26.06.2019 20:00:00 (CEST)Chassiron, France (7314): reduced air pressure: 20.06.2019 20:00:00 - 26.06.2019 20:00:00 (CEST)Chassiron, France (7314): visibility: 20.06.2019 20:00:00 - 26.06.2019 20:00:00 (CEST)Chassiron, France (7314): Quantités de précipitations: 20.06.2019 20:00:00 - 26.06.2019 20:00:00 (CEST)
Date & Time tt [°C] td [°C] ff [km/h] ff [knt] fx [km/h] fx [knt] dd ppp [hPa] vv [km] rr [mm]
26.06.2019 20:00:00 27,9 18,9 8 4 13 7 NE 1015,1 15 -
26.06.2019 19:00:00 27,5 19,0 8 5 19 10 N 1014,8 - 0,0
26.06.2019 18:00:00 34,8 19,2 9 5 23 12 E 1015,0 - 0,0
26.06.2019 17:00:00 32,2 19,1 13 7 24 13 E 1015,4 - 0,0
26.06.2019 16:00:00 28,0 19,8 6 3 28 15 WSW 1016,1 - 0,0
26.06.2019 15:00:00 33,5 18,0 13 7 32 17 E 1016,4 - 0,0
26.06.2019 14:00:00 32,8 17,0 14 7 31 17 ESE 1016,5 - 0,0
26.06.2019 13:00:00 30,4 18,5 12 7 22 12 E 1016,8 - 0,0
26.06.2019 12:00:00 27,3 19,1 13 7 28 15 E 1016,8 - 0,0
26.06.2019 11:00:00 24,5 19,1 16 8 27 14 E 1017,1 - 0,0
26.06.2019 10:00:00 23,6 20,5 13 7 29 15 E 1017,4 - 0,0
26.06.2019 09:00:00 21,6 19,5 18 10 27 15 NE 1017,6 - 0,0
26.06.2019 08:00:00 21,0 19,6 13 7 19 11 NNE 1017,8 12 0,0
26.06.2019 07:00:00 20,7 19,5 14 8 29 16 NE 1017,3 - 0,0
26.06.2019 06:00:00 20,8 19,6 18 10 27 15 NE 1016,5 - 0,0
26.06.2019 05:00:00 20,7 19,4 19 10 28 15 NNE 1016,4 15 0,0
26.06.2019 04:00:00 20,8 19,3 19 11 29 16 NNE 1016,5 - 0,0
26.06.2019 03:00:00 21,1 19,4 23 12 29 16 NNE 1017,2 - 0,0
26.06.2019 02:00:00 21,2 19,5 24 13 29 16 NNE 1017,6 - 0,0
26.06.2019 01:00:00 21,1 19,2 19 10 25 14 N 1018,1 - 0,0
26.06.2019 00:00:00 20,7 18,5 20 11 24 13 NNW 1018,2 - 0,0
25.06.2019 23:00:00 20,4 18,2 13 7 19 10 N 1018,3 8 0,0
25.06.2019 22:00:00 20,2 18,3 15 8 18 10 NNW 1018,0 - 0,0
25.06.2019 21:00:00 20,1 18,4 13 7 19 11 NNW 1018,2 - 0,0
25.06.2019 20:00:00 20,5 18,6 16 8 26 14 NNW 1018,4 8 0,0
25.06.2019 19:00:00 20,2 18,3 19 10 27 15 NW 1018,5 - 0,0
25.06.2019 18:00:00 20,7 18,3 15 8 23 13 W 1018,6 - -
25.06.2019 17:00:00 20,1 18,4 11 6 23 13 NW 1018,3 - 0,0
25.06.2019 16:00:00 20,9 18,1 11 6 23 12 WNW 1018,9 - 0,0
25.06.2019 15:00:00 21,3 18,7 11 6 17 9 WNW 1018,5 - 0,0
25.06.2019 14:00:00 21,0 18,2 8 5 13 7 WNW 1018,6 10 0,0
25.06.2019 13:00:00 20,4 18,2 10 5 21 11 NW 1018,2 - 0,0
25.06.2019 12:00:00 20,5 18,4 12 7 21 11 WNW 1018,0 - 0,0
25.06.2019 11:00:00 20,2 18,5 6 4 12 7 W 1017,6 10 0,0
25.06.2019 10:00:00 19,6 18,1 7 4 9 5 W 1017,4 - 0,0
25.06.2019 09:00:00 19,2 18,2 4 2 8 4 WSW 1016,9 - 0,0
25.06.2019 08:00:00 18,7 18,0 7 4 14 8 NW 1016,5 10 0,0
25.06.2019 07:00:00 18,4 17,7 9 5 24 13 NNW 1015,7 - 0,0
25.06.2019 06:00:00 18,4 17,7 8 4 12 7 N 1015,1 - 0,0
25.06.2019 05:00:00 18,7 17,9 8 5 17 9 N 1014,8 12 0,0
25.06.2019 04:00:00 18,9 18,1 13 7 24 13 N 1014,7 - 0,0
25.06.2019 03:00:00 18,9 17,9 15 8 25 13 NW 1015,1 - 0,0
25.06.2019 02:00:00 19,1 17,8 17 9 23 12 NW 1014,9 13 0,0
25.06.2019 01:00:00 19,8 17,9 6 4 16 9 N 1014,9 - 0,0
25.06.2019 00:00:00 20,0 18,0 11 6 27 14 NE 1014,4 - 0,0
24.06.2019 23:00:00 20,5 18,1 23 12 32 17 NNE 1013,9 12 0,0
24.06.2019 22:00:00 20,6 18,2 21 12 30 16 NNE 1013,8 - 0,0
24.06.2019 21:00:00 20,8 18,0 22 12 34 18 N 1013,5 - 0,0
24.06.2019 20:00:00 20,9 18,1 24 13 33 18 N 1012,9 - 0,0
24.06.2019 19:00:00 20,8 18,2 28 15 36 20 N 1012,6 - 0,0
24.06.2019 18:00:00 21,3 18,7 18 10 26 14 NW 1013,7 - 0,0
24.06.2019 17:00:00 22,0 19,0 21 11 39 21 N 1012,7 - 0,0
24.06.2019 16:00:00 21,6 19,0 23 12 30 16 N 1013,6 - 0,0
24.06.2019 15:00:00 20,4 18,2 14 8 31 17 N 1014,1 - 0,0
24.06.2019 14:00:00 20,7 18,1 21 12 30 16 N 1014,1 12 0,0
24.06.2019 13:00:00 20,7 18,3 16 9 46 25 ENE 1013,9 - 0,0
24.06.2019 12:00:00 19,6 17,6 26 14 44 24 NE 1014,4 - 0,0
24.06.2019 11:00:00 18,5 17,2 21 12 37 20 N 1014,9 6 0,4
24.06.2019 10:00:00 18,7 17,0 29 16 46 25 NNE 1014,9 - 0,2
24.06.2019 09:00:00 18,2 17,0 34 19 46 25 N 1014,4 - 1,4
24.06.2019 08:00:00 18,4 16,9 26 14 37 20 N 1015,3 - 0,4
24.06.2019 07:00:00 18,6 16,9 21 11 35 19 N 1014,8 - 0,0
24.06.2019 06:00:00 18,6 17,3 21 11 34 18 N 1014,7 - 0,2
24.06.2019 05:00:00 18,6 17,4 25 14 37 20 N 1014,2 12 0,4
24.06.2019 04:00:00 18,7 17,9 24 13 35 19 NNW 1014,2 - 0,2
24.06.2019 03:00:00 18,5 17,5 16 9 23 12 NNW 1014,8 - 0,0
24.06.2019 02:00:00 18,7 17,4 6 4 18 10 N 1015,1 12 0,0
24.06.2019 01:00:00 19,0 17,7 8 4 10 5 NNW 1014,9 - 0,0
24.06.2019 00:00:00 19,0 17,3 4 2 14 7 NE 1014,3 - 0,0
23.06.2019 23:00:00 19,0 17,5 5 3 13 7 NNW 1014,2 12 0,0
23.06.2019 22:00:00 19,2 17,7 11 6 18 10 WNW 1014,0 - 0,0
23.06.2019 21:00:00 19,2 17,5 9 5 22 12 W 1014,0 - 0,0
23.06.2019 20:00:00 19,6 17,9 14 7 24 13 WSW 1013,1 12 0,0
23.06.2019 19:00:00 20,2 18,0 20 11 36 19 S 1012,8 - 0,0
23.06.2019 18:00:00 21,0 18,2 26 14 37 20 SSW 1012,5 - 0,0
23.06.2019 17:00:00 22,1 18,9 26 14 41 22 S 1012,0 - 0,0
23.06.2019 16:00:00 22,0 18,6 26 14 43 23 S 1011,7 - 0,0
23.06.2019 15:00:00 23,5 17,9 28 15 40 21 S 1011,4 - 0,0
23.06.2019 14:00:00 26,8 18,1 16 9 36 20 S 1010,9 22 0,0
23.06.2019 13:00:00 27,2 16,5 20 11 32 18 ESE 1010,8 - 0,0
23.06.2019 12:00:00 22,1 17,2 14 8 30 16 E 1010,9 - 0,0
23.06.2019 11:00:00 22,2 16,9 14 8 27 15 E 1011,9 30 0,0
23.06.2019 10:00:00 20,9 15,9 16 9 31 17 E 1011,4 - 0,0
23.06.2019 09:00:00 19,2 15,9 11 6 26 14 E 1011,6 - 0,0
23.06.2019 08:00:00 18,9 16,1 12 7 27 14 E 1011,6 - 0,0
23.06.2019 07:00:00 17,8 15,6 11 6 26 14 E 1011,8 - 0,0
23.06.2019 06:00:00 18,1 15,5 14 7 26 14 E 1011,4 - 0,0
23.06.2019 05:00:00 18,3 15,0 11 6 22 12 E 1012,4 20 0,0
23.06.2019 04:00:00 19,0 15,9 13 7 23 13 E 1012,7 - 0,0
23.06.2019 03:00:00 19,0 15,9 10 5 22 12 E 1013,2 - 0,0
23.06.2019 02:00:00 19,6 16,4 11 6 21 11 E 1013,9 20 0,0
23.06.2019 01:00:00 19,9 16,3 11 6 18 10 E 1014,5 - 0,0
23.06.2019 00:00:00 20,1 15,9 9 5 19 10 E 1014,7 - 0,0
22.06.2019 23:00:00 20,5 15,1 9 5 18 10 E 1014,8 25 0,0
22.06.2019 22:00:00 21,3 15,6 10 5 22 12 E 1014,5 - 0,0
22.06.2019 21:00:00 22,6 15,2 10 6 23 12 E 1014,6 - 0,0
22.06.2019 20:00:00 23,3 16,1 13 7 23 12 E 1014,6 25 0,0
22.06.2019 19:00:00 21,7 16,6 8 4 15 8 NW 1014,9 - 0,0
22.06.2019 18:00:00 22,0 16,9 10 5 23 12 W 1015,1 - 0,0
22.06.2019 17:00:00 23,0 14,8 8 4 16 9 NNE 1016,0 - 0,0
22.06.2019 16:00:00 22,2 14,6 9 5 14 8 NNW 1016,5 - 0,0
22.06.2019 15:00:00 23,8 14,2 7 4 13 7 NNE 1017,1 - 0,0
22.06.2019 14:00:00 23,5 13,1 8 4 18 10 NE 1017,7 - 0,0
22.06.2019 13:00:00 23,1 14,1 9 5 21 11 NE 1018,2 - 0,0
22.06.2019 12:00:00 21,5 12,9 8 5 19 10 E 1018,7 - 0,0
22.06.2019 11:00:00 20,5 13,0 11 6 20 11 E 1018,9 30 0,0
22.06.2019 10:00:00 19,5 14,5 12 6 23 13 E 1019,5 - 0,0
22.06.2019 09:00:00 18,7 15,4 13 7 22 12 E 1019,5 - 0,0
22.06.2019 08:00:00 17,2 15,4 11 6 20 11 E 1019,5 12 0,0
22.06.2019 07:00:00 16,3 14,8 9 5 14 8 E 1019,4 - 0,0
22.06.2019 06:00:00 14,3 12,5 11 6 16 9 SE 1019,3 - 0,0
22.06.2019 05:00:00 14,7 12,7 10 5 24 13 SE 1019,1 18 0,0
22.06.2019 04:00:00 15,9 14,1 13 7 23 12 ESE 1019,2 - 0,0
22.06.2019 03:00:00 17,3 15,1 12 6 22 12 E 1019,5 - 0,0
22.06.2019 02:00:00 17,8 14,1 16 9 28 15 NNE 1020,1 18 0,0
22.06.2019 01:00:00 18,2 14,3 19 10 29 16 N 1020,4 - 0,0
22.06.2019 00:00:00 18,5 14,0 25 14 33 18 N 1020,5 - 0,0
21.06.2019 23:00:00 18,6 15,3 27 14 39 21 NNW 1020,4 15 0,0
21.06.2019 22:00:00 18,4 14,9 27 15 40 22 NW 1019,9 - 0,0
21.06.2019 21:00:00 18,5 14,4 26 14 39 21 NW 1019,8 - 0,0
21.06.2019 20:00:00 18,9 14,4 26 14 36 20 NW 1019,7 20 0,0
21.06.2019 19:00:00 19,0 14,9 24 13 36 19 NW 1019,7 - 0,0
21.06.2019 18:00:00 19,3 15,2 26 14 36 19 NW 1019,7 - 0,0
21.06.2019 17:00:00 19,5 15,2 26 14 36 19 NW 1019,9 20 0,0
21.06.2019 16:00:00 20,0 15,2 22 12 34 19 NW 1019,9 - 0,0
21.06.2019 15:00:00 20,4 15,4 19 11 28 15 NW 1019,9 - 0,0
21.06.2019 14:00:00 21,5 12,1 6 3 14 7 NNW 1020,1 20 0,0
21.06.2019 13:00:00 21,1 13,0 5 3 12 7 N 1020,1 - 0,0
21.06.2019 12:00:00 20,6 13,1 9 5 21 12 NNE 1020,2 - 0,0
21.06.2019 11:00:00 18,9 12,4 16 9 28 15 NNE 1019,8 - 0,0
21.06.2019 10:00:00 17,5 12,0 18 10 31 17 NE 1019,7 - 0,0
21.06.2019 09:00:00 16,5 11,8 21 11 34 18 NNE 1019,3 - 0,0
21.06.2019 08:00:00 15,9 11,9 25 14 32 17 NNE 1018,9 12 0,0
21.06.2019 07:00:00 15,5 11,7 25 13 32 17 NNE 1018,7 - 0,0
21.06.2019 06:00:00 15,5 12,1 23 12 34 18 NNE 1018,6 - 0,0
21.06.2019 05:00:00 16,0 13,1 26 14 39 21 N 1018,4 12 0,0
21.06.2019 04:00:00 16,2 13,3 23 13 33 18 NNW 1018,9 - 0,0
21.06.2019 03:00:00 16,2 12,9 24 13 39 21 NNW 1018,8 - 0,0
21.06.2019 02:00:00 16,1 12,5 27 15 37 20 NNW 1018,7 18 0,0
21.06.2019 01:00:00 16,3 12,5 25 14 35 19 NNW 1019,2 - 0,0
21.06.2019 00:00:00 16,6 11,5 27 15 37 20 NNW 1019,1 - 0,0
20.06.2019 23:00:00 16,8 12,3 30 16 44 24 NNW 1018,7 15 0,0
20.06.2019 22:00:00 17,0 12,7 35 19 45 24 NW 1018,1 - 0,0
20.06.2019 21:00:00 17,1 12,4 32 17 45 24 NW 1017,8 - 0,0
20.06.2019 20:00:00 17,1 11,8 31 17 46 25 NW 1017,7 20 0,0

tt = Température de l'air
td = dewpoint
ff = Vitesse du vent
fx = gusts
dd = Direction du vent
ppp = reduced air pressure
vv = visibility
rr = Quantités de précipitations

stations d'obs. à proximité